Location: Oberkirch
(48.5323°N, 8.0787°E)
Time: 00:56:53
(UTC+00:00)

Tiros 1 - Pass Details

Date: 25 February 2026
Orbit: 618 x 649 km, 48.4° (Epoch: 9 March)

Event Time Altitude Azimuth Distance (km) Brightness Sun altitude
Rises 04:07:33 0° 190° (S) 2,926 - -22.2°
Exits shadow 04:09:11 - 180° (S) 2,439 10.0 -21.9°
Reaches altitude 10° 04:11:02 10° 163° (SSE) 2,015 9.7 -21.6°
Maximum altitude 04:13:10 13° 136° (SE) 1,815 9.8 -21.3°
Drops below altitude 10° 04:15:17 10° 108° (ESE) 2,011 10.5 -20.9°
Sets 04:18:46 0° 82° (E) 2,915 12.1 -20.3°
